Overview Statistics Trail Chart Weather Telemetry Raw packets
 

This is the latest recevied weather packets stored in our database for station/object AI5BL. If no packets are shown the sender has not sent any weather packets the latest 10 day(s).

<< 2 3 4 5 6 7 8 >>
Time Temp. Humidity Pressure Rain* Wind** Luminosity Snow
1788632035 31.11° C 69% 1016.5 hPa 0 mm - 320 W/m² -
1788631734 31.67° C 73% 1016.3 hPa 0 mm - 266 W/m² -
1788631448 31.11° C 70% 1016.6 hPa 0 mm - 465 W/m² -
1788631123 31.67° C 71% 1016.6 hPa 0 mm - 364 W/m² -
1788630817 31.67° C 69% 1016.7 hPa 0 mm - 345 W/m² -
1788630513 31.67° C 69% 1016.7 hPa 0 mm - 331 W/m² -
1788630209 31.11° C 70% 1016.6 hPa 0 mm - 522 W/m² -
1788629904 31.67° C 70% 1016.6 hPa 0 mm - 241 W/m² -
1788629600 31.67° C 68% 1016.7 hPa 0 mm - 527 W/m² -
1788629300 31.67° C 71% 1016.6 hPa 0 mm - 263 W/m² -
1788628998 32.22° C 66% 1016.7 hPa 0 mm - 417 W/m² -
1788628694 31.67° C 68% 1016.7 hPa 0 mm - 752 W/m² -
1788628391 31.11° C 68% 1016.7 hPa 0 mm - 842 W/m² -
1788628087 31.11° C 71% 1016.8 hPa 0 mm - 231 W/m² -
1788627803 30.56° C 75% 1017.1 hPa 0 mm - 871 W/m² -
1788627481 30.56° C 71% 1017.1 hPa 0 mm - 124 W/m² -
1788627178 31.67° C 73% 1016.9 hPa 0 mm - 199 W/m² -
1788626872 30.56° C 73% 1016.9 hPa 0 mm - 194 W/m² -
1788626572 31.11° C 71% 1017 hPa 0 mm - 123 W/m² -
1788626268 31.67° C 71% 1017.1 hPa 0 mm - 137 W/m² -
1788625973 31.67° C 72% 1017.2 hPa 0 mm - 815 W/m² -
1788625660 32.22° C 73% 1017.2 hPa 0 mm - 207 W/m² -
1788625359 31.67° C 73% 1017.2 hPa 0 mm - 501 W/m² -
1788625054 30.56° C 76% 1017.2 hPa 0 mm - 809 W/m² -
1788624752 31.67° C 73% 1017.5 hPa 0 mm - 167 W/m² -

* Rain latest hour (hover to see other rain measurements)
** Current wind speed in m/s (hover to see current wind gust speed)